contact:dominique.lefevre@mio.osupytheas.fr, maurice.libes@osupytheas.fr, didier.mallarino@osupytheas.fr
Project:EMSO http://www.emso-fr.org/EMSO-France
Depth: 2436.0 m
Title:EMSO Ligure Ouest : Data MII capteur MICROCAT
DateTime_Computer,Latitude,Longitude,Temperature,Conductivity,Pressure,DateTime_Instrument
DateTime_Computer,Latitude,Longitude,degC,S m-1,dbar,DateTime_Instrument
2022-10-23T00:02:05Z,42.805,6.029,13.3018,4.60074,2470.586,2022-10-23T02:04:01Z
2022-10-23T00:05:08Z,42.805,6.029,13.3021,4.60072,2470.577,2022-10-23T02:07:04Z
2022-10-23T00:08:11Z,42.805,6.029,13.3021,4.60064,2470.563,2022-10-23T02:10:07Z
2022-10-23T00:11:15Z,42.805,6.029,13.3021,4.60066,2470.553,2022-10-23T02:13:10Z
2022-10-23T00:14:18Z,42.805,6.029,13.3018,4.60069,2470.591,2022-10-23T02:16:14Z
2022-10-23T00:17:21Z,42.805,6.029,13.3015,4.60069,2470.591,2022-10-23T02:19:17Z
2022-10-23T00:20:24Z,42.805,6.029,13.3016,4.60063,2470.577,2022-10-23T02:22:20Z
2022-10-23T00:23:27Z,42.805,6.029,13.3022,4.60078,2470.577,2022-10-23T02:25:23Z
2022-10-23T00:26:30Z,42.805,6.029,13.3019,4.60084,2470.614,2022-10-23T02:28:26Z
2022-10-23T00:29:33Z,42.805,6.029,13.3021,4.60065,2470.614,2022-10-23T02:31:29Z
2022-10-23T00:32:36Z,42.805,6.029,13.3019,4.60064,2470.53,2022-10-23T02:34:32Z
2022-10-23T00:35:39Z,42.805,6.029,13.3015,4.60067,2470.577,2022-10-23T02:37:35Z
2022-10-23T00:38:42Z,42.805,6.029,13.3020,4.60078,2470.577,2022-10-23T02:40:38Z
2022-10-23T00:41:45Z,42.805,6.029,13.3022,4.60074,2470.577,2022-10-23T02:43:41Z
2022-10-23T00:44:48Z,42.805,6.029,13.3015,4.60066,2470.586,2022-10-23T02:46:44Z
2022-10-23T00:47:51Z,42.805,6.029,13.3014,4.60062,2470.591,2022-10-23T02:49:47Z
2022-10-23T00:50:55Z,42.805,6.029,13.3015,4.60066,2470.624,2022-10-23T02:52:50Z
2022-10-23T00:53:58Z,42.805,6.029,13.3014,4.60067,2470.577,2022-10-23T02:55:54Z
2022-10-23T00:57:01Z,42.805,6.029,13.3019,4.60070,2470.553,2022-10-23T02:58:57Z
2022-10-23T01:00:04Z,42.805,6.029,13.3016,4.60081,2470.567,2022-10-23T03:02:00Z
2022-10-23T01:03:07Z,42.805,6.029,13.3012,4.60064,2470.553,2022-10-23T03:05:03Z
2022-10-23T01:06:10Z,42.805,6.029,13.3021,4.60067,2470.567,2022-10-23T03:08:06Z
2022-10-23T01:09:13Z,42.805,6.029,13.3018,4.60064,2470.553,2022-10-23T03:11:09Z
2022-10-23T01:12:16Z,42.805,6.029,13.3018,4.60072,2470.577,2022-10-23T03:14:12Z
2022-10-23T01:15:19Z,42.805,6.029,13.3025,4.60082,2470.567,2022-10-23T03:17:15Z
2022-10-23T01:18:22Z,42.805,6.029,13.3016,4.60073,2470.567,2022-10-23T03:20:18Z
2022-10-23T01:21:25Z,42.805,6.029,13.3014,4.60062,2470.591,2022-10-23T03:23:21Z
2022-10-23T01:24:28Z,42.805,6.029,13.3014,4.60064,2470.553,2022-10-23T03:26:24Z
2022-10-23T01:27:31Z,42.805,6.029,13.3017,4.60064,2470.567,2022-10-23T03:29:27Z
2022-10-23T01:30:35Z,42.805,6.029,13.3029,4.60074,2470.567,2022-10-23T03:32:30Z
2022-10-23T01:33:38Z,42.805,6.029,13.3016,4.60067,2470.577,2022-10-23T03:35:34Z
2022-10-23T01:36:41Z,42.805,6.029,13.3020,4.60083,2470.6,2022-10-23T03:38:37Z
2022-10-23T01:39:44Z,42.805,6.029,13.3016,4.60074,2470.577,2022-10-23T03:41:40Z
2022-10-23T01:42:47Z,42.805,6.029,13.3019,4.60062,2470.6,2022-10-23T03:44:43Z
2022-10-23T01:45:50Z,42.805,6.029,13.3014,4.60066,2470.6,2022-10-23T03:47:46Z
2022-10-23T01:48:53Z,42.805,6.029,13.3014,4.60061,2470.577,2022-10-23T03:50:49Z
2022-10-23T01:51:56Z,42.805,6.029,13.3019,4.60063,2470.614,2022-10-23T03:53:52Z
2022-10-23T01:54:59Z,42.805,6.029,13.3016,4.60064,2470.6,2022-10-23T03:56:55Z
2022-10-23T01:58:02Z,42.805,6.029,13.3016,4.60062,2470.577,2022-10-23T03:59:58Z
2022-10-23T02:01:05Z,42.805,6.029,13.3016,4.60063,2470.624,2022-10-23T04:03:01Z
2022-10-23T02:04:08Z,42.805,6.029,13.3019,4.60069,2470.624,2022-10-23T04:06:04Z
2022-10-23T02:07:11Z,42.805,6.029,13.3011,4.60064,2470.624,2022-10-23T04:09:07Z
2022-10-23T02:10:15Z,42.805,6.029,13.3011,4.60066,2470.6,2022-10-23T04:12:10Z
2022-10-23T02:13:18Z,42.805,6.029,13.3014,4.60065,2470.577,2022-10-23T04:15:14Z
2022-10-23T02:16:21Z,42.805,6.029,13.3018,4.60063,2470.637,2022-10-23T04:18:17Z
2022-10-23T02:19:24Z,42.805,6.029,13.3015,4.60067,2470.661,2022-10-23T04:21:20Z
2022-10-23T02:22:27Z,42.805,6.029,13.3019,4.60076,2470.61,2022-10-23T04:24:23Z
2022-10-23T02:25:30Z,42.805,6.029,13.3019,4.60064,2470.6,2022-10-23T04:27:26Z
2022-10-23T02:28:33Z,42.805,6.029,13.3014,4.60062,2470.624,2022-10-23T04:30:29Z
2022-10-23T02:31:36Z,42.805,6.029,13.3016,4.60073,2470.637,2022-10-23T04:33:32Z
2022-10-23T02:34:39Z,42.805,6.029,13.3016,4.60085,2470.637,2022-10-23T04:36:35Z
2022-10-23T02:37:42Z,42.805,6.029,13.3019,4.60065,2470.624,2022-10-23T04:39:38Z
2022-10-23T02:40:45Z,42.805,6.029,13.3021,4.60068,2470.624,2022-10-23T04:42:41Z
2022-10-23T02:43:48Z,42.805,6.029,13.3017,4.60071,2470.624,2022-10-23T04:45:44Z
2022-10-23T02:46:51Z,42.805,6.029,13.3015,4.60067,2470.646,2022-10-23T04:48:47Z
2022-10-23T02:49:55Z,42.805,6.029,13.3014,4.60064,2470.624,2022-10-23T04:51:50Z
2022-10-23T02:52:58Z,42.805,6.029,13.3014,4.60060,2470.624,2022-10-23T04:54:54Z
2022-10-23T02:56:01Z,42.805,6.029,13.3019,4.60069,2470.646,2022-10-23T04:57:57Z
2022-10-23T02:59:04Z,42.805,6.029,13.3014,4.60073,2470.624,2022-10-23T05:01:00Z
2022-10-23T03:02:07Z,42.805,6.029,13.3016,4.60069,2470.624,2022-10-23T05:04:03Z
2022-10-23T03:05:10Z,42.805,6.029,13.3015,4.60064,2470.646,2022-10-23T05:07:06Z
2022-10-23T03:08:13Z,42.805,6.029,13.3019,4.60061,2470.67,2022-10-23T05:10:09Z
2022-10-23T03:11:16Z,42.805,6.029,13.3012,4.60066,2470.67,2022-10-23T05:13:12Z
2022-10-23T03:14:19Z,42.805,6.029,13.3019,4.60074,2470.646,2022-10-23T05:16:15Z
2022-10-23T03:17:22Z,42.805,6.029,13.3017,4.60080,2470.67,2022-10-23T05:19:18Z
2022-10-23T03:20:25Z,42.805,6.029,13.3019,4.60089,2470.684,2022-10-23T05:22:21Z
2022-10-23T03:23:28Z,42.805,6.029,13.3015,4.60070,2470.646,2022-10-23T05:25:24Z
2022-10-23T03:26:32Z,42.805,6.029,13.3022,4.60084,2470.693,2022-10-23T05:28:27Z
2022-10-23T03:29:35Z,42.805,6.029,13.3010,4.60064,2470.693,2022-10-23T05:31:31Z
2022-10-23T03:32:38Z,42.805,6.029,13.3025,4.60077,2470.661,2022-10-23T05:34:34Z
2022-10-23T03:35:41Z,42.805,6.029,13.3021,4.60089,2470.693,2022-10-23T05:37:37Z
2022-10-23T03:38:44Z,42.805,6.029,13.3015,4.60075,2470.693,2022-10-23T05:40:40Z
2022-10-23T03:41:47Z,42.805,6.029,13.3014,4.60069,2470.67,2022-10-23T05:43:43Z
2022-10-23T03:44:50Z,42.805,6.029,13.3011,4.60072,2470.684,2022-10-23T05:46:46Z
2022-10-23T03:47:53Z,42.805,6.029,13.3022,4.60079,2470.67,2022-10-23T05:49:49Z
2022-10-23T03:50:56Z,42.805,6.029,13.3015,4.60069,2470.693,2022-10-23T05:52:52Z
2022-10-23T03:53:59Z,42.805,6.029,13.3017,4.60076,2470.67,2022-10-23T05:55:55Z
2022-10-23T03:57:02Z,42.805,6.029,13.3026,4.60076,2470.67,2022-10-23T05:58:58Z
2022-10-23T04:00:05Z,42.805,6.029,13.3029,4.60081,2470.707,2022-10-23T06:02:01Z
2022-10-23T04:03:08Z,42.805,6.029,13.3025,4.60086,2470.693,2022-10-23T06:05:04Z
2022-10-23T04:06:11Z,42.805,6.029,13.3018,4.60074,2470.684,2022-10-23T06:08:07Z
2022-10-23T04:09:15Z,42.805,6.029,13.3014,4.60072,2470.693,2022-10-23T06:11:11Z
2022-10-23T04:12:18Z,42.805,6.029,13.3028,4.60092,2470.693,2022-10-23T06:14:14Z
2022-10-23T04:15:21Z,42.805,6.029,13.3019,4.60093,2470.693,2022-10-23T06:17:17Z
2022-10-23T04:18:24Z,42.805,6.029,13.3027,4.60089,2470.717,2022-10-23T06:20:20Z
2022-10-23T04:21:27Z,42.805,6.029,13.3020,4.60077,2470.693,2022-10-23T06:23:23Z
2022-10-23T04:24:30Z,42.805,6.029,13.3014,4.60076,2470.73,2022-10-23T06:26:26Z
2022-10-23T04:27:33Z,42.805,6.029,13.3014,4.60074,2470.693,2022-10-23T06:29:29Z
2022-10-23T04:30:36Z,42.805,6.029,13.3014,4.60069,2470.707,2022-10-23T06:32:32Z
2022-10-23T04:33:39Z,42.805,6.029,13.3020,4.60065,2470.707,2022-10-23T06:35:35Z
2022-10-23T04:36:42Z,42.805,6.029,13.3015,4.60070,2470.679,2022-10-23T06:38:38Z
2022-10-23T04:39:45Z,42.805,6.029,13.3017,4.60066,2470.73,2022-10-23T06:41:41Z
2022-10-23T04:42:48Z,42.805,6.029,13.3017,4.60068,2470.717,2022-10-23T06:44:44Z
2022-10-23T04:45:51Z,42.805,6.029,13.3016,4.60069,2470.717,2022-10-23T06:47:47Z
2022-10-23T04:48:55Z,42.805,6.029,13.3015,4.60067,2470.754,2022-10-23T06:50:51Z
2022-10-23T04:51:58Z,42.805,6.029,13.3016,4.60067,2470.717,2022-10-23T06:53:54Z
2022-10-23T04:55:01Z,42.805,6.029,13.3015,4.60066,2470.717,2022-10-23T06:56:57Z
2022-10-23T04:58:04Z,42.805,6.029,13.3014,4.60062,2470.777,2022-10-23T07:00:00Z
2022-10-23T05:01:07Z,42.805,6.029,13.3017,4.60063,2470.717,2022-10-23T07:03:03Z
2022-10-23T05:04:10Z,42.805,6.029,13.3017,4.60080,2470.73,2022-10-23T07:06:06Z
2022-10-23T05:07:13Z,42.805,6.029,13.3019,4.60067,2470.74,2022-10-23T07:09:09Z
2022-10-23T05:10:16Z,42.805,6.029,13.3018,4.60070,2470.717,2022-10-23T07:12:12Z
2022-10-23T05:13:19Z,42.805,6.029,13.3019,4.60072,2470.717,2022-10-23T07:15:15Z
2022-10-23T05:16:22Z,42.805,6.029,13.3013,4.60072,2470.707,2022-10-23T07:18:18Z
2022-10-23T05:19:25Z,42.805,6.029,13.3014,4.60066,2470.777,2022-10-23T07:21:21Z
2022-10-23T05:22:28Z,42.805,6.029,13.3014,4.60064,2470.693,2022-10-23T07:24:24Z
2022-10-23T05:25:32Z,42.805,6.029,13.3020,4.60067,2470.74,2022-10-23T07:27:27Z
2022-10-23T05:28:35Z,42.805,6.029,13.3021,4.60072,2470.754,2022-10-23T07:30:31Z
2022-10-23T05:31:38Z,42.805,6.029,13.3021,4.60074,2470.74,2022-10-23T07:33:34Z
2022-10-23T05:34:41Z,42.805,6.029,13.3022,4.60067,2470.74,2022-10-23T07:36:37Z
2022-10-23T05:37:44Z,42.805,6.029,13.3019,4.60072,2470.717,2022-10-23T07:39:40Z
2022-10-23T05:40:47Z,42.805,6.029,13.3017,4.60062,2470.754,2022-10-23T07:42:43Z
2022-10-23T05:43:50Z,42.805,6.029,13.3019,4.60064,2470.74,2022-10-23T07:45:46Z
2022-10-23T05:46:53Z,42.805,6.029,13.3023,4.60067,2470.763,2022-10-23T07:48:49Z
2022-10-23T05:49:56Z,42.805,6.029,13.3014,4.60067,2470.717,2022-10-23T07:51:52Z
2022-10-23T05:52:59Z,42.805,6.029,13.3015,4.60069,2470.703,2022-10-23T07:54:55Z
2022-10-23T05:56:02Z,42.805,6.029,13.3024,4.60074,2470.754,2022-10-23T07:57:58Z
2022-10-23T05:59:05Z,42.805,6.029,13.3016,4.60073,2470.777,2022-10-23T08:01:01Z
2022-10-23T06:02:08Z,42.805,6.029,13.3014,4.60090,2470.754,2022-10-23T08:04:04Z
2022-10-23T06:05:11Z,42.805,6.029,13.3019,4.60079,2470.777,2022-10-23T08:07:07Z
2022-10-23T06:08:15Z,42.805,6.029,13.3017,4.60064,2470.717,2022-10-23T08:10:11Z
2022-10-23T06:11:18Z,42.805,6.029,13.3017,4.60066,2470.754,2022-10-23T08:13:14Z
2022-10-23T06:14:21Z,42.805,6.029,13.3013,4.60069,2470.754,2022-10-23T08:16:17Z
2022-10-23T06:17:24Z,42.805,6.029,13.3018,4.60067,2470.8,2022-10-23T08:19:20Z
2022-10-23T06:20:27Z,42.805,6.029,13.3023,4.60074,2470.777,2022-10-23T08:22:23Z
2022-10-23T06:23:30Z,42.805,6.029,13.3016,4.60064,2470.717,2022-10-23T08:25:26Z
2022-10-23T06:26:33Z,42.805,6.029,13.3015,4.60072,2470.717,2022-10-23T08:28:29Z
2022-10-23T06:29:36Z,42.805,6.029,13.3022,4.60072,2470.74,2022-10-23T08:31:32Z
2022-10-23T06:32:39Z,42.805,6.029,13.3019,4.60068,2470.73,2022-10-23T08:34:35Z
2022-10-23T06:35:42Z,42.805,6.029,13.3019,4.60074,2470.763,2022-10-23T08:37:38Z
2022-10-23T06:38:45Z,42.805,6.029,13.3015,4.60069,2470.73,2022-10-23T08:40:41Z
2022-10-23T06:41:48Z,42.805,6.029,13.3016,4.60067,2470.763,2022-10-23T08:43:44Z
2022-10-23T06:44:52Z,42.805,6.029,13.3019,4.60074,2470.717,2022-10-23T08:46:47Z
2022-10-23T06:47:55Z,42.805,6.029,13.3021,4.60067,2470.763,2022-10-23T08:49:51Z
2022-10-23T06:50:58Z,42.805,6.029,13.3020,4.60069,2470.73,2022-10-23T08:52:54Z
2022-10-23T06:54:01Z,42.805,6.029,13.3021,4.60070,2470.717,2022-10-23T08:55:57Z
2022-10-23T06:57:04Z,42.805,6.029,13.3019,4.60067,2470.754,2022-10-23T08:59:00Z
2022-10-23T07:00:07Z,42.805,6.029,13.3014,4.60069,2470.73,2022-10-23T09:02:03Z
2022-10-23T07:03:10Z,42.805,6.029,13.3014,4.60059,2470.754,2022-10-23T09:05:06Z
2022-10-23T07:06:13Z,42.805,6.029,13.3014,4.60064,2470.717,2022-10-23T09:08:09Z
2022-10-23T07:09:16Z,42.805,6.029,13.3012,4.60069,2470.74,2022-10-23T09:11:12Z
2022-10-23T07:12:19Z,42.805,6.029,13.3011,4.60063,2470.717,2022-10-23T09:14:15Z
2022-10-23T07:15:22Z,42.805,6.029,13.3012,4.60061,2470.74,2022-10-23T09:17:18Z
2022-10-23T07:18:25Z,42.805,6.029,13.3017,4.60067,2470.73,2022-10-23T09:20:21Z
2022-10-23T07:21:28Z,42.805,6.029,13.3012,4.60064,2470.717,2022-10-23T09:23:24Z
2022-10-23T07:24:32Z,42.805,6.029,13.3019,4.60070,2470.717,2022-10-23T09:26:27Z
2022-10-23T07:27:35Z,42.805,6.029,13.3013,4.60066,2470.717,2022-10-23T09:29:31Z
2022-10-23T07:30:38Z,42.805,6.029,13.3019,4.60064,2470.693,2022-10-23T09:32:34Z
2022-10-23T07:33:41Z,42.805,6.029,13.3011,4.60067,2470.693,2022-10-23T09:35:37Z
2022-10-23T07:36:44Z,42.805,6.029,13.3014,4.60064,2470.74,2022-10-23T09:38:40Z
2022-10-23T07:39:47Z,42.805,6.029,13.3014,4.60070,2470.707,2022-10-23T09:41:43Z
2022-10-23T07:42:50Z,42.805,6.029,13.3011,4.60061,2470.73,2022-10-23T09:44:46Z
2022-10-23T07:45:53Z,42.805,6.029,13.3010,4.60068,2470.74,2022-10-23T09:47:49Z
2022-10-23T07:48:56Z,42.805,6.029,13.3018,4.60069,2470.73,2022-10-23T09:50:52Z
2022-10-23T07:51:59Z,42.805,6.029,13.3013,4.60073,2470.717,2022-10-23T09:53:55Z
2022-10-23T07:55:02Z,42.805,6.029,13.3014,4.60074,2470.693,2022-10-23T09:56:58Z
2022-10-23T07:58:05Z,42.805,6.029,13.3018,4.60074,2470.717,2022-10-23T10:00:01Z
2022-10-23T08:01:08Z,42.805,6.029,13.3020,4.60077,2470.707,2022-10-23T10:03:04Z
2022-10-23T08:04:12Z,42.805,6.029,13.3018,4.60067,2470.693,2022-10-23T10:06:07Z
2022-10-23T08:07:15Z,42.805,6.029,13.3011,4.60067,2470.73,2022-10-23T10:09:11Z
2022-10-23T08:10:18Z,42.805,6.029,13.3017,4.60069,2470.693,2022-10-23T10:12:14Z
2022-10-23T08:13:21Z,42.805,6.029,13.3019,4.60075,2470.73,2022-10-23T10:15:17Z
2022-10-23T08:16:24Z,42.805,6.029,13.3015,4.60058,2470.717,2022-10-23T10:18:20Z
2022-10-23T08:19:27Z,42.805,6.029,13.3018,4.60065,2470.67,2022-10-23T10:21:23Z
2022-10-23T08:22:30Z,42.805,6.029,13.3012,4.60076,2470.717,2022-10-23T10:24:26Z
2022-10-23T08:25:33Z,42.805,6.029,13.3020,4.60072,2470.684,2022-10-23T10:27:29Z
2022-10-23T08:28:36Z,42.805,6.029,13.3020,4.60074,2470.67,2022-10-23T10:30:32Z
2022-10-23T08:31:39Z,42.805,6.029,13.3015,4.60074,2470.717,2022-10-23T10:33:35Z
2022-10-23T08:34:42Z,42.805,6.029,13.3011,4.60069,2470.67,2022-10-23T10:36:38Z
2022-10-23T08:37:45Z,42.805,6.029,13.3011,4.60065,2470.67,2022-10-23T10:39:41Z
2022-10-23T08:40:49Z,42.805,6.029,13.3009,4.60061,2470.693,2022-10-23T10:42:45Z
2022-10-23T08:43:52Z,42.805,6.029,13.3017,4.60078,2470.707,2022-10-23T10:45:48Z
2022-10-23T08:46:55Z,42.805,6.029,13.3012,4.60066,2470.707,2022-10-23T10:48:51Z
2022-10-23T08:49:58Z,42.805,6.029,13.3012,4.60074,2470.684,2022-10-23T10:51:54Z
2022-10-23T08:53:01Z,42.805,6.029,13.3016,4.60069,2470.684,2022-10-23T10:54:57Z
2022-10-23T08:56:04Z,42.805,6.029,13.3014,4.60080,2470.707,2022-10-23T10:58:00Z
2022-10-23T08:59:07Z,42.805,6.029,13.3012,4.60064,2470.624,2022-10-23T11:01:03Z
2022-10-23T09:02:10Z,42.805,6.029,13.3012,4.60069,2470.67,2022-10-23T11:04:06Z
2022-10-23T09:05:13Z,42.805,6.029,13.3014,4.60073,2470.684,2022-10-23T11:07:09Z
2022-10-23T09:08:16Z,42.805,6.029,13.3011,4.60070,2470.67,2022-10-23T11:10:12Z
2022-10-23T09:11:19Z,42.805,6.029,13.3013,4.60067,2470.693,2022-10-23T11:13:15Z
2022-10-23T09:14:22Z,42.805,6.029,13.3019,4.60076,2470.67,2022-10-23T11:16:18Z
2022-10-23T09:17:26Z,42.805,6.029,13.3013,4.60067,2470.67,2022-10-23T11:19:21Z
2022-10-23T09:20:29Z,42.805,6.029,13.3014,4.60062,2470.646,2022-10-23T11:22:25Z
2022-10-23T09:23:32Z,42.805,6.029,13.3016,4.60069,2470.67,2022-10-23T11:25:28Z
2022-10-23T09:26:35Z,42.805,6.029,13.3011,4.60065,2470.67,2022-10-23T11:28:31Z
2022-10-23T09:29:38Z,42.805,6.029,13.3019,4.60071,2470.646,2022-10-23T11:31:34Z
2022-10-23T09:32:41Z,42.805,6.029,13.3021,4.60079,2470.661,2022-10-23T11:34:37Z
2022-10-23T09:35:44Z,42.805,6.029,13.3021,4.60086,2470.646,2022-10-23T11:37:40Z
2022-10-23T09:38:47Z,42.805,6.029,13.3018,4.60077,2470.661,2022-10-23T11:40:43Z
2022-10-23T09:41:50Z,42.805,6.029,13.3014,4.60073,2470.646,2022-10-23T11:43:46Z
2022-10-23T09:44:53Z,42.805,6.029,13.3020,4.60081,2470.646,2022-10-23T11:46:49Z
2022-10-23T09:47:56Z,42.805,6.029,13.3015,4.60063,2470.646,2022-10-23T11:49:52Z
2022-10-23T09:51:00Z,42.805,6.029,13.3013,4.60064,2470.661,2022-10-23T11:52:55Z
2022-10-23T09:54:03Z,42.805,6.029,13.3023,4.60084,2470.624,2022-10-23T11:55:59Z
2022-10-23T09:57:06Z,42.805,6.029,13.3016,4.60069,2470.67,2022-10-23T11:59:02Z
2022-10-23T10:00:09Z,42.805,6.029,13.3019,4.60078,2470.646,2022-10-23T12:02:05Z
2022-10-23T10:03:12Z,42.805,6.029,13.3010,4.60062,2470.646,2022-10-23T12:05:08Z
2022-10-23T10:06:15Z,42.805,6.029,13.3014,4.60064,2470.624,2022-10-23T12:08:11Z
2022-10-23T10:09:18Z,42.805,6.029,13.3012,4.60063,2470.646,2022-10-23T12:11:14Z
2022-10-23T10:12:21Z,42.805,6.029,13.3018,4.60067,2470.646,2022-10-23T12:14:17Z
2022-10-23T10:15:24Z,42.805,6.029,13.3013,4.60067,2470.661,2022-10-23T12:17:20Z
2022-10-23T10:18:27Z,42.805,6.029,13.3017,4.60068,2470.624,2022-10-23T12:20:23Z
2022-10-23T10:21:30Z,42.805,6.029,13.3017,4.60065,2470.646,2022-10-23T12:23:26Z
2022-10-23T10:24:33Z,42.805,6.029,13.3016,4.60076,2470.624,2022-10-23T12:26:29Z
2022-10-23T10:27:36Z,42.805,6.029,13.3019,4.60064,2470.624,2022-10-23T12:29:32Z
2022-10-23T10:30:40Z,42.805,6.029,13.3012,4.60065,2470.624,2022-10-23T12:32:36Z
2022-10-23T10:33:43Z,42.805,6.029,13.3014,4.60075,2470.646,2022-10-23T12:35:39Z
2022-10-23T10:36:46Z,42.805,6.029,13.3014,4.60068,2470.646,2022-10-23T12:38:42Z
2022-10-23T10:39:49Z,42.805,6.029,13.3019,4.60076,2470.646,2022-10-23T12:41:45Z
2022-10-23T10:42:52Z,42.805,6.029,13.3019,4.60062,2470.646,2022-10-23T12:44:48Z
2022-10-23T10:45:55Z,42.805,6.029,13.3012,4.60062,2470.6,2022-10-23T12:47:51Z
2022-10-23T10:48:58Z,42.805,6.029,13.3016,4.60074,2470.624,2022-10-23T12:50:54Z
2022-10-23T10:52:01Z,42.805,6.029,13.3014,4.60066,2470.624,2022-10-23T12:53:57Z
2022-10-23T10:55:04Z,42.805,6.029,13.3012,4.60062,2470.646,2022-10-23T12:57:00Z
2022-10-23T10:58:07Z,42.805,6.029,13.3018,4.60067,2470.6,2022-10-23T13:00:03Z
2022-10-23T11:01:10Z,42.805,6.029,13.3015,4.60068,2470.661,2022-10-23T13:03:06Z
2022-10-23T11:04:13Z,42.805,6.029,13.3019,4.60064,2470.624,2022-10-23T13:06:09Z
2022-10-23T11:07:17Z,42.805,6.029,13.3015,4.60078,2470.577,2022-10-23T13:09:12Z
2022-10-23T11:10:20Z,42.805,6.029,13.3019,4.60066,2470.624,2022-10-23T13:12:16Z
2022-10-23T11:13:23Z,42.805,6.029,13.3019,4.60070,2470.6,2022-10-23T13:15:19Z
2022-10-23T11:16:26Z,42.805,6.029,13.3024,4.60081,2470.637,2022-10-23T13:18:22Z
2022-10-23T11:19:29Z,42.805,6.029,13.3025,4.60075,2470.577,2022-10-23T13:21:25Z
2022-10-23T11:22:32Z,42.805,6.029,13.3021,4.60076,2470.624,2022-10-23T13:24:28Z
2022-10-23T11:25:35Z,42.805,6.029,13.3015,4.60064,2470.637,2022-10-23T13:27:31Z
2022-10-23T11:28:38Z,42.805,6.029,13.3027,4.60084,2470.637,2022-10-23T13:30:34Z
2022-10-23T11:31:41Z,42.805,6.029,13.3021,4.60070,2470.637,2022-10-23T13:33:37Z
2022-10-23T11:34:44Z,42.805,6.029,13.3014,4.60073,2470.624,2022-10-23T13:36:40Z
2022-10-23T11:37:47Z,42.805,6.029,13.3016,4.60072,2470.614,2022-10-23T13:39:43Z
2022-10-23T11:40:50Z,42.805,6.029,13.3018,4.60065,2470.614,2022-10-23T13:42:46Z
2022-10-23T11:43:54Z,42.805,6.029,13.3016,4.60065,2470.6,2022-10-23T13:45:50Z
2022-10-23T11:46:57Z,42.805,6.029,13.3018,4.60068,2470.637,2022-10-23T13:48:53Z
2022-10-23T11:50:00Z,42.805,6.029,13.3017,4.60072,2470.6,2022-10-23T13:51:56Z
2022-10-23T11:53:03Z,42.805,6.029,13.3023,4.60075,2470.577,2022-10-23T13:54:59Z
2022-10-23T11:56:06Z,42.805,6.029,13.3020,4.60078,2470.6,2022-10-23T13:58:02Z
2022-10-23T11:59:09Z,42.805,6.029,13.3008,4.60072,2470.614,2022-10-23T14:01:05Z
2022-10-23T12:02:12Z,42.805,6.029,13.3015,4.60077,2470.6,2022-10-23T14:04:08Z
2022-10-23T12:05:15Z,42.805,6.029,13.3015,4.60072,2470.624,2022-10-23T14:07:11Z
2022-10-23T12:08:18Z,42.805,6.029,13.3017,4.60072,2470.614,2022-10-23T14:10:14Z
2022-10-23T12:11:21Z,42.805,6.029,13.3019,4.60068,2470.6,2022-10-23T14:13:17Z
2022-10-23T12:14:24Z,42.805,6.029,13.3017,4.60064,2470.6,2022-10-23T14:16:20Z
2022-10-23T12:17:27Z,42.805,6.029,13.3015,4.60069,2470.591,2022-10-23T14:19:23Z
2022-10-23T12:20:31Z,42.805,6.029,13.3016,4.60069,2470.586,2022-10-23T14:22:27Z
2022-10-23T12:23:34Z,42.805,6.029,13.3015,4.60069,2470.577,2022-10-23T14:25:30Z
2022-10-23T12:26:37Z,42.805,6.029,13.3024,4.60079,2470.61,2022-10-23T14:28:33Z
2022-10-23T12:29:40Z,42.805,6.029,13.3018,4.60081,2470.6,2022-10-23T14:31:36Z
2022-10-23T12:32:43Z,42.805,6.029,13.3015,4.60067,2470.6,2022-10-23T14:34:39Z
2022-10-23T12:35:46Z,42.805,6.029,13.3014,4.60064,2470.591,2022-10-23T14:37:42Z
2022-10-23T12:38:49Z,42.805,6.029,13.3011,4.60062,2470.586,2022-10-23T14:40:45Z
2022-10-23T12:41:52Z,42.805,6.029,13.3016,4.60075,2470.624,2022-10-23T14:43:48Z
2022-10-23T12:44:55Z,42.805,6.029,13.3011,4.60068,2470.6,2022-10-23T14:46:51Z
2022-10-23T12:47:58Z,42.805,6.029,13.3011,4.60063,2470.614,2022-10-23T14:49:54Z
2022-10-23T12:51:01Z,42.805,6.029,13.3015,4.60068,2470.577,2022-10-23T14:52:57Z
2022-10-23T12:54:04Z,42.805,6.029,13.3021,4.60074,2470.614,2022-10-23T14:56:00Z
2022-10-23T12:57:08Z,42.805,6.029,13.3020,4.60067,2470.577,2022-10-23T14:59:04Z
2022-10-23T13:00:11Z,42.805,6.029,13.3017,4.60077,2470.624,2022-10-23T15:02:07Z
2022-10-23T13:03:14Z,42.805,6.029,13.3013,4.60072,2470.614,2022-10-23T15:05:10Z
2022-10-23T13:06:17Z,42.805,6.029,13.3019,4.60066,2470.577,2022-10-23T15:08:13Z
2022-10-23T13:09:20Z,42.805,6.029,13.3012,4.60064,2470.637,2022-10-23T15:11:16Z
2022-10-23T13:12:23Z,42.805,6.029,13.3022,4.60072,2470.614,2022-10-23T15:14:19Z
2022-10-23T13:15:26Z,42.805,6.029,13.3022,4.60084,2470.577,2022-10-23T15:17:22Z
2022-10-23T13:18:29Z,42.805,6.029,13.3015,4.60065,2470.6,2022-10-23T15:20:25Z
2022-10-23T13:21:32Z,42.805,6.029,13.3016,4.60072,2470.577,2022-10-23T15:23:28Z
2022-10-23T13:24:35Z,42.805,6.029,13.3026,4.60079,2470.6,2022-10-23T15:26:31Z
2022-10-23T13:27:38Z,42.805,6.029,13.3015,4.60072,2470.637,2022-10-23T15:29:34Z
2022-10-23T13:30:41Z,42.805,6.029,13.3018,4.60074,2470.6,2022-10-23T15:32:37Z
2022-10-23T13:33:45Z,42.805,6.029,13.3019,4.60070,2470.614,2022-10-23T15:35:41Z
2022-10-23T13:36:48Z,42.805,6.029,13.3022,4.60074,2470.591,2022-10-23T15:38:44Z
2022-10-23T13:39:51Z,42.805,6.029,13.3019,4.60085,2470.637,2022-10-23T15:41:47Z
2022-10-23T13:42:54Z,42.805,6.029,13.3025,4.60079,2470.624,2022-10-23T15:44:50Z
2022-10-23T13:45:57Z,42.805,6.029,13.3014,4.60070,2470.624,2022-10-23T15:47:53Z
2022-10-23T13:49:00Z,42.805,6.029,13.3019,4.60088,2470.637,2022-10-23T15:50:56Z
2022-10-23T13:52:03Z,42.805,6.029,13.3021,4.60081,2470.624,2022-10-23T15:53:59Z
2022-10-23T13:55:06Z,42.805,6.029,13.3014,4.60068,2470.646,2022-10-23T15:57:02Z
2022-10-23T13:58:09Z,42.805,6.029,13.3036,4.60082,2470.624,2022-10-23T16:00:05Z
2022-10-23T14:01:12Z,42.805,6.029,13.3016,4.60083,2470.661,2022-10-23T16:03:08Z
2022-10-23T14:04:15Z,42.805,6.029,13.3019,4.60096,2470.646,2022-10-23T16:06:11Z
2022-10-23T14:07:18Z,42.805,6.029,13.3021,4.60074,2470.637,2022-10-23T16:09:14Z
2022-10-23T14:10:22Z,42.805,6.029,13.3016,4.60092,2470.661,2022-10-23T16:12:17Z
2022-10-23T14:13:25Z,42.805,6.029,13.3020,4.60069,2470.661,2022-10-23T16:15:21Z
2022-10-23T14:16:28Z,42.805,6.029,13.3021,4.60071,2470.661,2022-10-23T16:18:24Z
2022-10-23T14:19:31Z,42.805,6.029,13.3024,4.60080,2470.624,2022-10-23T16:21:27Z
2022-10-23T14:22:34Z,42.805,6.029,13.3015,4.60067,2470.661,2022-10-23T16:24:30Z
2022-10-23T14:25:37Z,42.805,6.029,13.3015,4.60064,2470.637,2022-10-23T16:27:33Z
2022-10-23T14:28:40Z,42.805,6.029,13.3017,4.60069,2470.684,2022-10-23T16:30:36Z
2022-10-23T14:31:43Z,42.805,6.029,13.3026,4.60078,2470.646,2022-10-23T16:33:39Z
2022-10-23T14:34:46Z,42.805,6.029,13.3015,4.60069,2470.661,2022-10-23T16:36:42Z
2022-10-23T14:37:49Z,42.805,6.029,13.3015,4.60067,2470.67,2022-10-23T16:39:45Z
2022-10-23T14:40:52Z,42.805,6.029,13.3016,4.60084,2470.646,2022-10-23T16:42:48Z
2022-10-23T14:43:55Z,42.805,6.029,13.3013,4.60064,2470.646,2022-10-23T16:45:51Z
2022-10-23T14:46:59Z,42.805,6.029,13.3015,4.60074,2470.684,2022-10-23T16:48:55Z
2022-10-23T14:50:02Z,42.805,6.029,13.3021,4.60089,2470.684,2022-10-23T16:51:58Z
2022-10-23T14:53:05Z,42.805,6.029,13.3027,4.60074,2470.67,2022-10-23T16:55:01Z
2022-10-23T14:56:08Z,42.805,6.029,13.3013,4.60070,2470.67,2022-10-23T16:58:04Z
2022-10-23T14:59:11Z,42.805,6.029,13.3016,4.60071,2470.707,2022-10-23T17:01:07Z
2022-10-23T15:02:14Z,42.805,6.029,13.3021,4.60076,2470.67,2022-10-23T17:04:10Z